User: anonymous   Login
Location: Unspecified
(0.0000°N, 0.0000°E)
Time: 22:34:18
(UTC+00:00)
Language:

Transit 2A - Orbit

View from above orbital plane
View from above orbital plane
View from above satellite
View from above satellite

Ground track
Ground track

The orbit data is extracted from the following two-line orbital elements,

1    45U 60007A   17142.92973257 -.00000023 +00000-0 +21070-4 0  9991
2    45 066.6945 096.1512 0249872 050.8024 311.4977 14.33550980905118
Epoch (UTC): 22 May 2017 22:18:48
Eccentricity: 0.0249872
inclination: 66.6945°
perigee height: 601 km
apogee height: 959 km
right ascension of ascending node: 96.1512°
argument of perigee: 50.8024°
revolutions per day: 14.33550980
mean anomaly at epoch: 311.4977°
orbit number at epoch: 90511

The dashed part of the orbit path shows where the satellite is in the earth's shadow,  

DLR